TimeCDT,TemperatureF,Dew PointF,Humidity,Sea Level PressureIn,VisibilityMPH,Wind Direction,Wind SpeedMPH,Gust SpeedMPH,PrecipitationIn,Events,Conditions,WindDirDegrees,DateUTC
12:15 AM,75.2,68.0,78,29.95,10.0,SSW,11.5,-,N/A,,Clear,200,2013-08-21 05:15:00
12:35 AM,77.0,68.0,74,29.95,10.0,SSW,15.0,-,N/A,,Clear,200,2013-08-21 05:35:00
12:55 AM,77.0,68.0,74,29.96,10.0,SSW,15.0,-,N/A,,Clear,210,2013-08-21 05:55:00
1:15 AM,75.2,68.0,78,29.96,10.0,SSW,13.8,-,N/A,,Clear,210,2013-08-21 06:15:00
1:35 AM,75.2,68.0,78,29.96,10.0,SSW,11.5,19.6,N/A,,Clear,210,2013-08-21 06:35:00
1:55 AM,75.2,66.2,73,29.96,10.0,SSW,15.0,20.7,N/A,,Clear,210,2013-08-21 06:55:00
2:15 AM,75.2,66.2,73,29.96,10.0,SSW,15.0,21.9,N/A,,Clear,210,2013-08-21 07:15:00
2:35 AM,75.2,66.2,73,29.95,10.0,SSW,16.1,-,N/A,,Clear,210,2013-08-21 07:35:00
2:55 AM,75.2,66.2,73,29.95,10.0,SSW,12.7,19.6,N/A,,Clear,210,2013-08-21 07:55:00
3:15 AM,73.4,66.2,78,29.95,10.0,SSW,15.0,-,N/A,,Clear,200,2013-08-21 08:15:00
3:35 AM,73.4,66.2,78,29.95,10.0,SSW,13.8,19.6,N/A,,Clear,210,2013-08-21 08:35:00
3:55 AM,73.4,68.0,83,29.96,10.0,SSW,13.8,-,N/A,,Clear,210,2013-08-21 08:55:00
4:15 AM,73.4,68.0,83,29.96,10.0,SSW,13.8,-,N/A,,Clear,210,2013-08-21 09:15:00
4:35 AM,73.4,68.0,83,29.96,10.0,SSW,12.7,18.4,N/A,,Clear,210,2013-08-21 09:35:00
4:55 AM,73.4,68.0,83,29.96,10.0,SSW,10.4,18.4,N/A,,Clear,210,2013-08-21 09:55:00
5:15 AM,73.4,68.0,83,29.96,10.0,SSW,12.7,-,N/A,,Clear,210,2013-08-21 10:15:00
5:35 AM,71.6,68.0,88,29.96,10.0,SSW,13.8,-,N/A,,Clear,210,2013-08-21 10:35:00
5:55 AM,71.6,68.0,88,29.96,10.0,SSW,16.1,-,N/A,,Clear,210,2013-08-21 10:55:00
6:15 AM,71.6,66.2,83,29.96,10.0,SW,16.1,23.0,N/A,,Clear,220,2013-08-21 11:15:00
6:35 AM,71.6,66.2,83,29.97,10.0,SW,15.0,-,N/A,,Clear,220,2013-08-21 11:35:00
6:55 AM,71.6,66.2,83,29.97,10.0,SSW,17.3,24.2,N/A,,Clear,210,2013-08-21 11:55:00
7:15 AM,71.6,68.0,88,29.97,10.0,SW,17.3,23.0,N/A,,Clear,220,2013-08-21 12:15:00
7:35 AM,73.4,68.0,83,29.97,10.0,SW,16.1,25.3,N/A,,Clear,220,2013-08-21 12:35:00
7:55 AM,73.4,68.0,83,29.98,10.0,SW,17.3,-,N/A,,Clear,230,2013-08-21 12:55:00
8:15 AM,73.4,68.0,83,29.98,10.0,SW,16.1,21.9,N/A,,Clear,230,2013-08-21 13:15:00
8:35 AM,75.2,68.0,78,29.97,10.0,SW,18.4,24.2,N/A,,Clear,220,2013-08-21 13:35:00
8:55 AM,75.2,68.0,78,29.97,10.0,SW,18.4,-,N/A,,Clear,220,2013-08-21 13:55:00
9:15 AM,77.0,68.0,74,29.97,10.0,SW,18.4,28.8,N/A,,Clear,220,2013-08-21 14:15:00
9:35 AM,77.0,66.2,69,29.97,10.0,SW,18.4,29.9,N/A,,Clear,230,2013-08-21 14:35:00
9:55 AM,78.8,66.2,65,29.97,10.0,SW,17.3,25.3,N/A,,Clear,230,2013-08-21 14:55:00
10:15 AM,80.6,66.2,61,29.97,10.0,SW,21.9,28.8,N/A,,Clear,230,2013-08-21 15:15:00
10:35 AM,82.4,66.2,58,29.98,10.0,SW,19.6,31.1,N/A,,Clear,230,2013-08-21 15:35:00
10:55 AM,82.4,66.2,58,29.97,10.0,SW,20.7,29.9,N/A,,Clear,220,2013-08-21 15:55:00
11:15 AM,82.4,66.2,58,29.98,10.0,SW,19.6,31.1,N/A,,Clear,220,2013-08-21 16:15:00
11:35 AM,84.2,68.0,58,29.97,10.0,SW,19.6,26.5,N/A,,Clear,220,2013-08-21 16:35:00
11:55 AM,84.2,68.0,58,29.97,10.0,SSW,20.7,-,N/A,,Clear,210,2013-08-21 16:55:00
12:15 PM,84.2,68.0,58,29.98,10.0,SW,17.3,24.2,N/A,,Clear,220,2013-08-21 17:15:00
12:35 PM,86.0,68.0,55,29.98,10.0,SW,17.3,23.0,N/A,,Clear,220,2013-08-21 17:35:00
12:55 PM,86.0,68.0,55,29.99,10.0,SW,13.8,23.0,N/A,,Clear,230,2013-08-21 17:55:00
1:15 PM,87.8,68.0,52,29.99,10.0,SW,17.3,25.3,N/A,,Clear,220,2013-08-21 18:15:00
1:35 PM,87.8,68.0,52,29.98,10.0,SW,16.1,24.2,N/A,,Clear,220,2013-08-21 18:35:00
1:55 PM,87.8,69.8,55,29.98,10.0,SSW,15.0,-,N/A,,Clear,200,2013-08-21 18:55:00
2:15 PM,87.8,69.8,55,29.98,10.0,SSW,17.3,-,N/A,,Clear,210,2013-08-21 19:15:00
2:35 PM,87.8,69.8,55,29.98,10.0,SSW,17.3,-,N/A,,Clear,210,2013-08-21 19:35:00
2:55 PM,87.8,69.8,55,29.98,10.0,SW,15.0,21.9,N/A,,Clear,230,2013-08-21 19:55:00
3:15 PM,87.8,69.8,55,29.97,10.0,SW,13.8,21.9,N/A,,Clear,220,2013-08-21 20:15:00
3:35 PM,86.0,69.8,58,29.97,10.0,SSW,15.0,-,N/A,,Clear,200,2013-08-21 20:35:00
3:55 PM,86.0,71.6,62,29.97,10.0,SSW,9.2,16.1,N/A,,Clear,210,2013-08-21 20:55:00
4:15 PM,87.8,71.6,58,29.97,10.0,SSW,13.8,-,N/A,,Clear,200,2013-08-21 21:15:00
4:35 PM,87.8,69.8,55,29.96,10.0,South,13.8,-,N/A,,Clear,190,2013-08-21 21:35:00
4:55 PM,87.8,69.8,55,29.96,10.0,SW,10.4,17.3,N/A,,Clear,220,2013-08-21 21:55:00
5:15 PM,86.0,69.8,58,29.96,10.0,SW,11.5,-,N/A,,Clear,220,2013-08-21 22:15:00
5:35 PM,86.0,71.6,62,29.96,10.0,SSW,10.4,-,N/A,,Clear,210,2013-08-21 22:35:00
5:55 PM,86.0,71.6,62,29.96,9.0,SSW,11.5,-,N/A,,Clear,210,2013-08-21 22:55:00
6:15 PM,86.0,71.6,62,29.96,10.0,SW,9.2,-,N/A,,Clear,220,2013-08-21 23:15:00
6:35 PM,86.0,71.6,62,29.96,10.0,SW,4.6,-,N/A,,Clear,220,2013-08-21 23:35:00
6:55 PM,84.2,71.6,66,29.96,-9999.0,SW,8.1,-,N/A,,Clear,230,2013-08-21 23:55:00
7:15 PM,84.2,71.6,66,29.97,10.0,SSW,11.5,-,N/A,,Clear,210,2013-08-22 00:15:00
7:35 PM,84.2,71.6,66,29.97,10.0,SW,13.8,-,N/A,,Clear,220,2013-08-22 00:35:00
7:55 PM,80.6,71.6,74,29.98,10.0,SSW,6.9,-,N/A,,Clear,210,2013-08-22 00:55:00
8:15 PM,78.8,73.4,83,29.98,9.0,SSW,5.8,-,N/A,,Clear,200,2013-08-22 01:15:00
8:35 PM,77.0,71.6,83,29.98,10.0,South,4.6,-,N/A,,Clear,180,2013-08-22 01:35:00
8:55 PM,77.0,71.6,83,29.99,6.0,Calm,Calm,-,N/A,,Haze,0,2013-08-22 01:55:00
9:15 PM,75.2,71.6,89,29.99,8.0,Calm,Calm,-,N/A,,Clear,0,2013-08-22 02:15:00
9:35 PM,75.2,71.6,89,30.00,9.0,Calm,Calm,-,N/A,,Clear,0,2013-08-22 02:35:00
9:55 PM,73.4,71.6,94,30.01,8.0,Calm,Calm,-,N/A,,Clear,0,2013-08-22 02:55:00
10:15 PM,73.4,71.6,94,30.00,10.0,Calm,Calm,-,N/A,,Clear,0,2013-08-22 03:15:00
10:35 PM,71.6,69.8,94,29.99,9.0,SSE,3.5,-,N/A,,Clear,160,2013-08-22 03:35:00
10:55 PM,71.6,71.6,100,30.00,10.0,SE,4.6,-,N/A,,Clear,140,2013-08-22 03:55:00
11:15 PM,71.6,71.6,100,30.00,9.0,South,5.8,-,N/A,,Clear,180,2013-08-22 04:15:00
11:35 PM,73.4,71.6,94,30.00,9.0,South,8.1,-,N/A,,Clear,190,2013-08-22 04:35:00
11:55 PM,73.4,71.6,94,30.01,10.0,SSW,8.1,-,N/A,,Clear,210,2013-08-22 04:55:00